SM7GXQ Weather Reports


Display with metric or nautical units.
time (UTC)temp
F
wind
direction
speed
MPH
gust
MPH
rain 1hr
in
rain 24hr
in
rain mn
in
humidity
%
barometer
mb
20220518213003 51 206 4.0 12.0 0.00 0.00 0.00 78 1022.2
20220518211504 51 215 6.0 10.0 0.00 0.00 0.00 78 1022.2
20220518210003 51 198 3.0 12.0 0.00 0.00 0.00 79 1022.4
20220518204503 51 195 5.0 9.0 0.00 0.00 0.00 80 1022.4
20220518203004 51 193 5.0 10.0 0.00 0.00 0.00 78 1022.4
20220518201503 51 196 4.0 8.0 0.00 0.00 0.00 76 1022.4
20220518194503 51 191 5.0 8.0 0.00 0.00 0.00 74 1022.6
20220518191503 52 184 5.0 12.0 0.00 0.00 0.00 64 1022.5
20220518184503 52 187 5.0 9.0 0.00 0.00 0.00 61 1022.5
20220518183004 52 193 3.0 9.0 0.00 0.00 0.00 64 1022.6
20220518181504 51 186 5.0 10.0 0.00 0.00 0.00 67 1022.6
20220518174504 51 183 5.0 12.0 0.00 0.00 0.00 69 1022.7
20220518164504 55 177 5.0 12.0 0.00 0.00 0.00 60 1023.1
20220518161504 57 188 6.0 12.0 0.00 0.00 0.00 56 1023.3
20220518154503 58 172 6.0 15.0 0.00 0.00 0.00 57 1023.7
20220518151503 57 193 6.0 13.0 0.00 0.00 0.00 58 1024.2
20220518150004 56 186 7.0 12.0 0.00 0.00 0.00 59 1024.2
20220518144503 56 172 7.0 13.0 0.00 0.00 0.00 58 1024.3
20220518143004 57 190 6.0 14.0 0.00 0.00 0.00 56 1024.4
20220518134504 57 209 6.0 16.0 0.00 0.00 0.00 59 1025.3
20220518133004 57 178 7.0 14.0 0.00 0.00 0.00 59 1025.3
20220518130004 57 199 5.0 18.0 0.00 0.00 0.00 60 1025.8
20220518124504 57 207 6.0 15.0 0.00 0.00 0.00 60 1025.8
20220518121503 58 190 5.0 16.0 0.00 0.00 0.00 58 1025.8
20220518114503 57 194 7.0 14.0 0.00 0.00 0.00 55 1026.2
20220518113004 57 194 6.0 14.0 0.00 0.00 0.00 62 1026.2
20220518111504 56 202 6.0 20.0 0.00 0.00 0.00 64 1026.4
20220518110004 57 202 5.0 13.0 0.00 0.00 0.00 61 1026.4
20220518100004 56 210 5.0 14.0 0.00 0.00 0.00 63 1027.1
20220518094504 56 204 6.0 15.0 0.00 0.00 0.00 64 1027.4
20220518093004 55 211 7.0 14.0 0.00 0.00 0.00 63 1027.4
20220518090004 55 203 6.0 15.0 0.00 0.00 0.00 64 1027.7
20220518084504 55 214 5.0 12.0 0.00 0.00 0.00 63 1027.7
20220518083004 55 222 6.0 10.0 0.00 0.00 0.00 60 1027.8
20220518081504 54 214 5.0 12.0 0.00 0.00 0.00 61 1028.0
20220518074503 53 215 5.0 12.0 0.00 0.00 0.00 64 1028.0
20220518073004 53 231 5.0 10.0 0.00 0.00 0.00 66 1028.1
20220518070004 51 222 5.0 12.0 0.00 0.00 0.00 68 1028.2
20220518064505 51 196 4.0 10.0 0.00 0.00 0.00 70 1028.2
20220518054504 50 218 2.0 7.0 0.00 0.00 0.00 77 1028.1
20220518051504 49 220 3.0 8.0 0.00 0.00 0.00 80 1028.1
20220518050005 48 219 3.0 7.0 0.00 0.00 0.00 83 1028.0
20220518043005 46 185 2.0 6.0 0.00 0.00 0.00 88 1028.0
20220518041504 44 184 2.0 5.0 0.00 0.00 0.00 90 1027.9
20220518040005 42 182 2.0 5.0 0.00 0.00 0.00 92 1027.9
20220518034504 40 167 1.0 2.0 0.00 0.00 0.00 93 1027.9
20220518033004 37 150 1.0 2.0 0.00 0.00 0.00 92 1027.8
20220518031504 37 150 2.0 3.0 0.00 0.00 0.00 91 1027.8
20220518030005 36 150 1.0 2.0 0.00 0.00 0.00 91 1027.7
20220518023005 37 153 1.0 3.0 0.00 0.00 0.00 90 1027.7
20220518020004 38 155 1.0 3.0 0.00 0.00 0.00 90 1027.7
20220518014504 38 148 0.0 3.0 0.00 0.00 0.00 90 1027.7
20220518013004 37 142 2.0 3.0 0.00 0.00 0.00 91 1027.6
20220518011504 37 136 2.0 3.0 0.00 0.00 0.00 90 1027.6
20220518004505 37 145 2.0 3.0 0.00 0.00 0.00 89 1027.5
20220518003005 38 149 1.0 2.0 0.00 0.00 0.00 89 1027.6
20220518000004 39 149 1.0 3.0 0.00 0.00 0.00 88 1027.5
20220517234504 39 148 2.0 3.0 0.00 0.00 0.00 87 1027.5
20220517233005 40 154 1.0 3.0 0.00 0.00 0.00 88 1027.5
20220517231505 40 147 2.0 5.0 0.00 0.00 0.00 88 1027.7
20220517230005 40 140 2.0 3.0 0.00 0.00 0.00 89 1027.7
20220517224503 40 168 1.0 2.0 0.00 0.00 0.00 88 1027.2
20220517221502 40 142 1.0 2.0 0.00 0.00 0.00 88 1027.2
20220517220003 40 135 1.0 2.0 0.00 0.00 0.00 88 1027.2